TimeEST,TemperatureF,Dew PointF,Humidity,Sea Level PressureIn,VisibilityMPH,Wind Direction,Wind SpeedMPH,Gust SpeedMPH,PrecipitationIn,Events,Conditions,WindDirDegrees,DateUTC
12:15 AM,39.2,24.8,56,30.02,10.0,SW,11.5,-,N/A,,Clear,220,2013-11-15 05:15:00
12:34 AM,37.4,24.8,60,30.02,10.0,SW,11.5,-,N/A,,Clear,220,2013-11-15 05:34:00
12:55 AM,37.4,24.8,60,30.02,10.0,SW,12.7,-,N/A,,Clear,220,2013-11-15 05:55:00
1:15 AM,39.2,23.0,52,30.01,10.0,SW,12.7,-,N/A,,Clear,220,2013-11-15 06:15:00
1:34 AM,39.2,23.0,52,30.01,10.0,SW,12.7,-,N/A,,Clear,230,2013-11-15 06:34:00
1:55 AM,39.2,23.0,52,30.01,10.0,SW,10.4,17.3,N/A,,Clear,230,2013-11-15 06:55:00
2:15 AM,39.2,23.0,52,30.01,10.0,SW,13.8,-,N/A,,Clear,230,2013-11-15 07:15:00
2:34 AM,39.2,23.0,52,30.01,10.0,SW,12.7,-,N/A,,Clear,220,2013-11-15 07:34:00
2:55 AM,39.2,24.8,56,30.01,10.0,SW,9.2,-,N/A,,Clear,230,2013-11-15 07:55:00
3:15 AM,39.2,24.8,56,30.01,10.0,SW,10.4,-,N/A,,Clear,220,2013-11-15 08:15:00
3:34 AM,39.2,24.8,56,30.01,10.0,SW,10.4,-,N/A,,Clear,220,2013-11-15 08:34:00
3:55 AM,39.2,24.8,56,30.00,10.0,SW,9.2,-,N/A,,Clear,220,2013-11-15 08:55:00
4:15 AM,39.2,24.8,56,30.00,10.0,SSW,9.2,-,N/A,,Clear,210,2013-11-15 09:15:00
4:35 AM,39.2,24.8,56,29.99,10.0,SSW,10.4,-,N/A,,Clear,210,2013-11-15 09:35:00
4:55 AM,39.2,24.8,56,30.00,10.0,SSW,12.7,-,N/A,,Clear,210,2013-11-15 09:55:00
5:15 AM,39.2,24.8,56,30.00,10.0,SW,11.5,-,N/A,,Clear,220,2013-11-15 10:15:00
5:35 AM,39.2,24.8,56,30.00,10.0,SW,10.4,-,N/A,,Clear,220,2013-11-15 10:35:00
5:55 AM,37.4,24.8,60,30.00,10.0,SW,9.2,-,N/A,,Clear,220,2013-11-15 10:55:00
6:14 AM,37.4,24.8,60,30.00,10.0,SSW,9.2,-,N/A,,Clear,210,2013-11-15 11:14:00
6:35 AM,35.6,24.8,65,30.00,10.0,SW,6.9,-,N/A,,Clear,220,2013-11-15 11:35:00
6:55 AM,35.6,24.8,65,30.00,10.0,SSW,6.9,-,N/A,,Clear,210,2013-11-15 11:55:00
7:15 AM,35.6,24.8,65,30.01,10.0,SSW,5.8,-,N/A,,Clear,210,2013-11-15 12:15:00
7:35 AM,35.6,24.8,65,30.01,10.0,SSW,8.1,-,N/A,,Clear,210,2013-11-15 12:35:00
7:55 AM,35.6,24.8,65,30.01,10.0,SSW,9.2,-,N/A,,Clear,210,2013-11-15 12:55:00
8:15 AM,35.6,24.8,65,30.02,10.0,SSW,9.2,-,N/A,,Clear,210,2013-11-15 13:15:00
8:34 AM,37.4,24.8,60,30.03,10.0,SSW,9.2,-,N/A,,Clear,210,2013-11-15 13:34:00
8:55 AM,39.2,24.8,56,30.03,10.0,SSW,8.1,-,N/A,,Clear,210,2013-11-15 13:55:00
9:15 AM,39.2,24.8,56,30.03,10.0,SSW,10.4,-,N/A,,Clear,210,2013-11-15 14:15:00
9:34 AM,42.8,26.6,53,30.04,10.0,SW,12.7,-,N/A,,Clear,220,2013-11-15 14:34:00
9:55 AM,42.8,26.6,53,30.03,10.0,WSW,13.8,-,N/A,,Clear,240,2013-11-15 14:55:00
10:15 AM,42.8,26.6,53,30.04,10.0,SW,12.7,-,N/A,,Clear,220,2013-11-15 15:15:00
10:34 AM,42.8,26.6,53,30.04,10.0,SW,15.0,-,N/A,,Clear,220,2013-11-15 15:34:00
10:55 AM,44.6,26.6,49,30.04,10.0,SW,12.7,-,N/A,,Clear,230,2013-11-15 15:55:00
11:14 AM,42.8,26.6,53,30.04,10.0,SW,10.4,-,N/A,,Clear,230,2013-11-15 16:14:00
11:35 AM,44.6,26.6,49,30.03,10.0,SSW,11.5,-,N/A,,Clear,210,2013-11-15 16:35:00
11:55 AM,44.6,26.6,49,30.02,10.0,SW,13.8,-,N/A,,Clear,220,2013-11-15 16:55:00
12:14 PM,46.4,28.4,50,30.02,10.0,SW,11.5,-,N/A,,Clear,220,2013-11-15 17:14:00
12:35 PM,46.4,28.4,50,30.02,10.0,SSW,13.8,-,N/A,,Clear,210,2013-11-15 17:35:00
12:55 PM,46.4,28.4,50,30.00,10.0,SSW,13.8,-,N/A,,Clear,200,2013-11-15 17:55:00
1:14 PM,48.2,28.4,46,29.99,10.0,SW,11.5,-,N/A,,Mostly Cloudy,220,2013-11-15 18:14:00
1:35 PM,48.2,28.4,46,29.99,10.0,SSW,15.0,-,N/A,,Mostly Cloudy,210,2013-11-15 18:35:00
1:55 PM,48.2,28.4,46,29.99,10.0,SW,11.5,-,N/A,,Mostly Cloudy,230,2013-11-15 18:55:00
2:14 PM,48.2,28.4,46,29.98,10.0,SW,12.7,-,N/A,,Mostly Cloudy,220,2013-11-15 19:14:00
2:35 PM,48.2,28.4,46,29.98,10.0,SW,15.0,-,N/A,,Overcast,220,2013-11-15 19:35:00
2:55 PM,48.2,28.4,46,29.98,10.0,SSW,11.5,16.1,N/A,,Overcast,200,2013-11-15 19:55:00
3:14 PM,48.2,28.4,46,29.98,10.0,SSW,8.1,-,N/A,,Overcast,210,2013-11-15 20:14:00
3:35 PM,48.2,28.4,46,29.98,10.0,SW,11.5,-,N/A,,Overcast,220,2013-11-15 20:35:00
3:55 PM,48.2,28.4,46,29.99,10.0,SSW,9.2,-,N/A,,Overcast,210,2013-11-15 20:55:00
4:14 PM,48.2,28.4,46,29.98,10.0,SSW,9.2,-,N/A,,Overcast,210,2013-11-15 21:14:00
4:35 PM,48.2,28.4,46,29.98,10.0,SSW,8.1,-,N/A,,Overcast,210,2013-11-15 21:35:00
4:55 PM,46.4,32.0,57,29.99,10.0,SSW,6.9,-,N/A,,Drizzle,210,2013-11-15 21:55:00
5:14 PM,46.4,30.2,53,29.99,10.0,South,5.8,-,N/A,,Overcast,190,2013-11-15 22:14:00
5:34 PM,46.4,30.2,53,30.00,10.0,South,8.1,-,N/A,,Overcast,190,2013-11-15 22:34:00
5:55 PM,46.4,30.2,53,30.00,10.0,South,8.1,-,N/A,,Overcast,180,2013-11-15 22:55:00
6:15 PM,46.4,30.2,53,30.00,10.0,South,5.8,-,N/A,,Overcast,180,2013-11-15 23:15:00
6:34 PM,46.4,30.2,53,30.00,10.0,South,5.8,-,N/A,,Overcast,180,2013-11-15 23:34:00
6:55 PM,46.4,30.2,53,30.00,10.0,South,6.9,-,N/A,,Overcast,190,2013-11-15 23:55:00
7:15 PM,46.4,30.2,53,30.01,10.0,South,8.1,-,N/A,,Overcast,190,2013-11-16 00:15:00
7:34 PM,46.4,30.2,53,30.01,10.0,South,6.9,-,N/A,,Overcast,190,2013-11-16 00:34:00
7:55 PM,46.4,30.2,53,30.02,10.0,SSW,9.2,-,N/A,,Overcast,200,2013-11-16 00:55:00
8:15 PM,46.4,30.2,53,30.02,10.0,South,9.2,-,N/A,,Overcast,190,2013-11-16 01:15:00
8:35 PM,44.6,30.2,57,30.02,10.0,South,8.1,-,N/A,,Overcast,180,2013-11-16 01:35:00
8:55 PM,44.6,30.2,57,30.02,10.0,South,9.2,-,N/A,,Overcast,190,2013-11-16 01:55:00
9:15 PM,44.6,30.2,57,30.02,10.0,SSW,8.1,-,N/A,,Overcast,200,2013-11-16 02:15:00
9:35 PM,44.6,30.2,57,30.02,10.0,South,6.9,-,N/A,,Overcast,190,2013-11-16 02:35:00
9:55 PM,44.6,30.2,57,30.02,10.0,South,8.1,-,N/A,,Overcast,190,2013-11-16 02:55:00
10:15 PM,44.6,30.2,57,30.02,10.0,South,6.9,-,N/A,,Overcast,190,2013-11-16 03:15:00
10:35 PM,44.6,30.2,57,30.03,10.0,SSW,8.1,-,N/A,,Overcast,200,2013-11-16 03:35:00
10:55 PM,42.8,30.2,61,30.03,10.0,South,9.2,-,N/A,,Scattered Clouds,180,2013-11-16 03:55:00
11:14 PM,41.0,30.2,65,30.03,10.0,South,9.2,-,N/A,,Clear,190,2013-11-16 04:14:00
11:35 PM,39.2,28.4,65,30.03,10.0,South,5.8,-,N/A,,Clear,180,2013-11-16 04:35:00
11:55 PM,39.2,28.4,65,30.03,10.0,South,6.9,-,N/A,,Clear,180,2013-11-16 04:55:00